Back to catalog

CZ-6A DEB

AlivePO
NORAD 55215·DEBRIS·🇨🇳 China

Launched Nov 11, 2022 from Taiyuan Satellite Launch Center

Loading…

Next Passes (next 24 hours)

TLE

FreshSource: Space-Track

Epoch: Sep 14, 2026, 15:26 UTC

1 55215U 22151WG  26257.64324548  .00014107  00000-0  17895-2 0  9992
2 55215  98.6319 327.5497 0047617  19.1555 341.1433 14.81031058197944

Track CZ-6A DEB in real time with AllMySat

Download on the App Store